星链-5920 (STARLINK-5920 )

导读

STARLINK-5920是美国SpaceX公司星链(Starlink)星座中的一颗第二代低轨互联网卫星,于2023年3月17日发射入轨。星链项目旨在构建全球覆盖的低轨卫星互联网,为偏远地区、移动场景及应急场景提供宽带服务,该卫星是星链大规模组网中的一员,服务全球网络接入覆盖,当前已随星链网络的扩展,支撑星座提供更稳定的高速互联网连接。

Basic Information
目录编号:
55935
目录名称:
STARLINK-5920
国际标识:
2023-037X
轨道中心:
EARTH
卫星名称:
星链-5920
卫星全名:
星链-5920 (STARLINK-5920 )
卫星状态:
在轨 (已飞行1268 天)
发射日期:
2023-03-17 UTC
国别 :
美国 (US)
星等 :
--
Orbit Information
数据来源 国际轨道数据
星历时间: 2026-09-05T04:11:28+0800
9小时前
查看轨道信息
半长轴: 6950.203km
偏心率: 0.0003314
轨道倾角: 70.001°
近地点辐角 272.465°
升交点赤经 192.820°
平近点角 87.613°
近地点: 569.762km
远地点: 574.37km
周期: 96.107分钟
每日圈数: 14.98327
Detailed Information
固有亮度:
5
最大亮度:
2.5
卫星平台:
Starlink v1.5
覆盖范围:
全球
运营商:
太空探索技术公司
运营商所在国:
美国
制造商(研发单位):
太空探索技术公司
制造商所在国:
美国
使用方式:
暂无
Satellite Introduction
星链(Starlink)计划是由太空探索技术公司(SpaceX)提出的一个巨型低轨卫星互联网星座项目,计划在2019年至2024年间在太空搭建由约1.2万颗卫星组成的“星链”网络,其中1584颗将部署在地球上空550千米处的近地轨道,并从2020年开始工作。该卫星仍在工作。
2D Orbit Map
3D Orbit Map
Orbit Altitude Analysis Chart
Orbit Inclination Analysis Chart
Orbit Comprehensive Analysis Chart
View Comprehensive Chart
Conjunction Data List
Event ID Objects TCA Miss Dist (km) Collision Risk Probability Collision Risk Index (CRI) Action
CDM_260906-101605-593506-189821
OBJECT E (61898)
2026-09-06T
10:16:26+0000
0.899 km
远距离
3.67761E-5 中风险 0.66
CDM_260907-050105-593506-456321
AE3VA (64563)
2026-09-07T
05:01:28+0000
2.212 km
极远距离
2.271798E-6 低风险 0.42
CDM_260907-110405-215505-593521
OBJECT C (52155)
2026-09-07T
11:04:22+0000
2.968 km
极远距离
1.22255E-6 低风险 0.37